Regional Weather Roundup
Issued by NWS

Home | Current Version | Previous Version | Text Only | Print | Product List | Glossary On
Versions: 1 2 3 4 5 6 7 8 9 10 11 12 13 14 15 16 17 18 19 20 21 22 23 24 25 26 27 28 29 30 31 32 33 34 35 36 37 38 39 40 41 42 43 44 45 46 47 48 49 50
000
ASUS44 KLIX 291711
RWRLA
LOUISIANA WEATHER ROUNDUP
NATIONAL WEATHER SERVICE NEW ORLEANS LA
1200 PM CDT SUN MAR 29 2015

NOTE: "FAIR" INDICATES FEW OR NO CLOUDS BELOW 12,000 FEET WITH NO
      SIGNIFICANT WEATHER AND/OR OBSTRUCTIONS TO VISIBILITY.
      SKY/WX - SKY CONDITION AND SIGNIFICANT WEATHER.
      TMP - AIR TEMPERATURE.    DP   - DEWPOINT TEMPERATURE.
      RH  - RELATIVE HUMIDITY.  PRES - PRESSURE.
      HX  - HEAT INDEX.         WCI  - WIND CHILL INDEX.

*  THESE STATIONS ARE NOT NWS OR FAA STATIONS AND ARE NOT UNDER
   NWS QUALITY CONTROL.

LAZ040-048-061>063-065-066-069-291800-
SOUTHEAST LOUISIANA

CITY           SKY/WX    TMP DP  RH WIND       PRES   REMARKS
N.O. AUDUBON   NOT AVBL
N.O. INTL ARPT MOSUNNY   74  58  57 SE14      30.29F
N.O. LAKEFRONT SUNNY     74  57  55 SE14      30.30F
SLIDELL        PTSUNNY   71  56  58 SE8       30.30F
BATON ROUGE    PTSUNNY   73  58  59 SE9       30.26F
BOOTHVILLE     MOSUNNY   71  59  65 SE17      30.32S
BELLE CHASSE   MOSUNNY   71  59  65 SE12      30.29F
BOGALUSA*        N/A     69  52  53 S14       30.32F
GALLIANO*      MOSUNNY   75  62  64 SE6       30.29F
NEW ROADS*     FAIR      69  56  63 E8        30.27S
GONZALES*      FAIR      74  60  63 SE5       30.26F
HAMMOND*       PTSUNNY   72  54  53 SE13G18   30.30F
HOUMA*         MOSUNNY  N/A N/A N/A SE10      30.28F
PORT FOURCHON* SUNNY     72  64  78 E14G21    30.32F

$$

LAZ041-044-053-054-291800-
SOUTHWEST LOUISIANA

CITY           SKY/WX    TMP DP  RH WIND       PRES   REMARKS
LAKE CHARLES   MOSUNNY   75  61  61 S15G26    30.23R
LAFAYETTE      PTSUNNY   76  62  62 S15       30.25S
PATTERSON      CLOUDY    73  61  64 S16       30.26F
SALT POINT       N/A     73  63  70 SE8       30.26F
NEW IBERIA     PTSUNNY   76  61  59 S12G21    30.26S
CHENAULT AIRPK PTSUNNY   75  61  60 S18G28      N/A

$$

LAZ027-028-291800-
CENTRAL LOUISIANA

CITY           SKY/WX    TMP DP  RH WIND       PRES   REMARKS
FORT POLK      PTSUNNY   73  60  63 S16G22    30.19F
ALEXANDRIA INT PTSUNNY   71  62  73 SE10      30.20F
ALEXANDRIA     MOSUNNY   68  58  70 S7        30.23F

$$

LAZ001-002-291800-
NORTHWEST LOUISIANA

CITY           SKY/WX    TMP DP  RH WIND       PRES   REMARKS
SHREVEPORT     MOSUNNY   75  57  53 S16G23    30.11F
BARKSDALE AFB  SUNNY     74  57  55 S14G22    30.12F
DTN SHREVEPORT SUNNY     73  57  57 S16G23    30.12F

$$

LAZ014-016-291800-
NORTHEAST LOUISIANA

CITY           SKY/WX    TMP DP  RH WIND       PRES   REMARKS
MONROE         SUNNY     67  53  61 S9        30.20F
TALLULAH       SUNNY     65  48  54 S13       30.24F

$$



USA.gov is the U.S. government's official web portal to all federal, state and local government web resources and services.